Regional Weather Roundup
Issued by NWS Jackson, KY

Home | Current Version | Previous Version | Text Only | Print | Product List | Glossary Off
Versions: 1 2 3 4 5 6 7 8 9 10 11 12 13 14 15 16 17 18 19 20 21 22 23 24 25 26 27 28 29 30 31 32 33 34 35 36 37 38 39 40 41 42 43 44 45 46 47 48 49 50

000
ASUS43 KJKL 201310
RWRJKL

EAST KENTUCKY HOURLY WEATHER ROUNDUP
NATIONAL WEATHER SERVICE JACKSON KY
900 AM EDT WED AUG 20 2014

NOTE: "FAIR" INDICATES FEW OR NO CLOUDS BELOW 12,000 FEET WITH
NO SIGNIFICANT WEATHER AND/OR OBSTRUCTIONS TO VISIBILITY.

* THESE REPORTS ARE NOT UNDER NWS QUALITY CONTROL AND MAY NOT
  REPORT WEATHER SUCH AS PRECIPITATION AND FOG.

KYZ079-080-083-085-087-088-110-112-115-119-120-201400
...EASTERN KENTUCKY...

CITY           SKY/WX    TMP DP  RH WIND       PRES   REMARKS
JACKSON        CLOUDY    68  67  96 VRB3      30.00S FOG
LONDON         CLOUDY    73  69  87 SE5       30.01R
SOMERSET*      SUNNY     73  72  94 CALM      30.00R
MONTICELLO*    SUNNY     79  74  84 CALM      30.00R
MIDDLESBORO*   PTSUNNY   71  68  92 CALM      30.02S
HARLAN APT*    CLOUDY    64  64 100 MISG      30.06R VSB 3/4
HAZARD APT*    MOSUNNY   70  70 100 CALM      30.01
BLACK MTN*       N/A     61  61 100 NE2         N/A
PIKEVILLE APT* SUNNY     66  64  94 S5        30.01R
BIG SANDY*     CLOUDY    68  66  96 S6        30.00R
MOREHEAD APT*  CLOUDY    68  66  94 S7        29.99R
$$

KYZ035-036-041-042-044-050-067-078-099-201400
...CENTRAL KENTUCKY...

CITY           SKY/WX    TMP DP  RH WIND       PRES   REMARKS
MT STERLING*   PTSUNNY   68  68 100 SW6       29.99R
FLEMING/MASON* CLOUDY    68  66  94 S5        29.97R
DANVILLE*      CLOUDY    72  70  94 S3        29.99R
RICHMOND*      CLOUDY    72  68  88 S3        29.98R
LEXINGTON      SUNNY     75  68  78 S8        29.96R
FRANKFORT      SUNNY     74  68  81 S7        29.94R
$$

KYZ091>093-OHZ055-061-077-WVZ005-015-034-035-042-201400
...SOUTHERN OHIO/WEST VIRGINIA...

CITY           SKY/WX    TMP DP  RH WIND       PRES   REMARKS
COVINGTON      MOSUNNY   69  66  90 S8        29.93R
COLUMBUS       MOSUNNY   72  65  78 SW6       29.91R
DAYTON         MOSUNNY   71  64  78 SW8       29.93R
WILMINGTON     SUNNY     69  65  86 SW8       29.94R
HUNTINGTON     PTSUNNY   68  67  96 S5        29.96R
CHARLESTON     CLOUDY    69  68  96 CALM      29.95R
PINEVILLE*     LGT RAIN  69  69 100 MISG      30.08R
BECKLEY        CLOUDY    68  66  93 S6        30.04R
BLUEFIELD      LGT RAIN  69  65  86 CALM      30.11R FOG
$$

VAZ002-007-008-TNZ017-027-036-066-071-201400
...SOUTHWEST VIRGINIA/EAST TENNESSEE...

CITY           SKY/WX    TMP DP  RH WIND       PRES   REMARKS
WISE*          CLOUDY    63  63 100 SW7       30.09F
JONESVILLE*      N/A     68  68 100 CALM      30.06R THUNDER
ABINGDON*      RAIN      70  70 100 CALM      30.09R
BRISTOL        LGT RAIN  70  66  87 S5        30.06R
KNOXVILLE      PTSUNNY   75  70  84 W3        30.01R
OAK RIDGE      CLOUDY    74  72  93 SW5       30.03R
CROSSVILLE     PTSUNNY   76  71  85 SW3       30.06R
NASHVILLE      MOSUNNY   81  75  82 SW7       29.97R
$$

...KEY TO REMARKS...
VSB - VISIBILITY IN MILES
WCI - WIND CHILL INDEX
HX  - HEAT INDEX

$$


USA.gov is the U.S. government's official web portal to all federal, state and local government web resources and services.